User: anonymous   Login
Location: West Cummington
(42.4920°N, 72.9680°W)
Time: 18:00:51
(UTC-04:00)
Language:

Cosmos 841 Rocket - Orbit

View from above orbital plane
View from above orbital plane
View from above satellite
View from above satellite

Ground track
Ground track

The orbit data is extracted from the following two-line orbital elements,

1  9023U 76069B   16273.85426160 +.00000060 +00000-0 +27557-4 0  9999
2  9023 074.0436 217.2088 0016336 086.9464 273.3560 14.39511374107073
Epoch (UTC): 29 September 2016 20:30:08
Eccentricity: 0.0016336
inclination: 74.0436°
perigee height: 748 km
apogee height: 772 km
right ascension of ascending node: 217.2088°
argument of perigee: 86.9464°
revolutions per day: 14.39511374
mean anomaly at epoch: 273.3560°
orbit number at epoch: 10707

The dashed part of the orbit path shows where the satellite is in the earth's shadow,  

DLR